User: anonymous   Login
Location: Unspecified
(0.0000°N, 0.0000°E)
Time: 20:37:37
(UTC+00:00)
Language:

DSCS III B-4 - Orbit

View from above orbital plane
View from above orbital plane
View from above satellite
View from above satellite

Ground track
Ground track

The orbit data is extracted from the following two-line orbital elements,

1 16116U 85092B   21135.86453462 -.00000236  00000-0  00000-0 0  9991
2 16116  15.1372   1.8399 0005720  62.7291 105.1322  0.99329802  7460
Epoch (UTC): 15 May 2021 20:44:55
Eccentricity: 0.0005720
inclination: 15.1372°
perigee height: 36028 km
apogee height: 36076 km
right ascension of ascending node: 1.8399°
argument of perigee: 62.7291°
revolutions per day: 0.99329802
mean anomaly at epoch: 105.1322°
orbit number at epoch: 746

The dashed part of the orbit path shows where the satellite is in the earth's shadow,  

DLR